#timestamp,LO_Frequency,Hit,StdDev 
1506916815.4,286047009.0,N
1506916835.3,286047010.0,N
1506916855.1,286047010.1,N
1506916875.8,286047009.4,N
1506916895.7,286047010.0,N
1506916915.5,286047008.9,N
1506916935.3,286047008.8,N
1506916955.2,286047008.6,N
1506916975.9,286046999.7,N
1506916995.7,286047002.6,N
1506917015.6,286047002.4,N
1506917035.4,286047001.6,N
1506917055.2,286047003.6,N
1506917075.0,286047002.1,N
1506917076.0,286047002.1,N
1506917095.8,286047001.0,N
1506917115.6,286047002.1,N
1506917135.4,286046998.1,N
1506917155.3,286046998.3,N
1506917175.1,286046999.9,N
1506917195.8,286046999.5,N
1506917215.7,286047000.6,N
1506917235.5,286046998.7,N
1506917255.3,286046995.3,N
1506917275.2,286046998.4,N
1506917295.9,286047001.5,N
1506917315.7,286047005.4,N
1506917335.6,286047008.4,N
1506917355.4,286047010.0,N
1506917375.2,286047009.5,N
1506917395.0,286047013.4,N
1506917396.0,286047013.4,N
1506917415.8,286047012.6,N
1506917435.6,286047013.1,N
1506917455.4,286047013.1,N
1506917475.3,286047016.3,Y
1506917495.1,286047015.8,P
1506917515.9,286047017.7,P
1506917535.7,286047018.7,P
1506917555.5,286047017.9,Y
1506917575.4,286047006.0,P
1506917595.2,286047003.3,N
1506917615.0,286047005.3,N
1506917615.9,286047005.3,N
1506917635.7,286047007.4,N
1506917655.6,286047007.0,N
1506917675.4,286047005.7,N
1506917695.2,286047005.0,N
1506917715.1,286047005.9,N
1506917716.0,286047005.9,N
1506917735.8,286047006.6,N
1506917755.6,286047007.0,N
1506917775.5,286047006.8,N
1506917795.3,286047009.1,Y
1506917815.1,286047001.9,P
1506917835.9,286046999.7,N
1506917855.7,286046998.1,N
1506917875.5,286047007.6,N
1506917895.4,286047007.6,N
1506917915.2,286047007.3,N
1506917935.0,286047008.8,N
1506917935.9,286047008.8,N
1506917955.8,286047010.3,N
1506917975.6,286047006.4,N
1506917995.4,286047003.3,N
1506918015.3,286047005.6,N
1506918035.1,286047003.1,N
1506918036.0,286047003.1,N
1506918055.8,286046998.1,N
1506918075.6,286046999.6,N
1506918095.5,286046997.6,N
1506918115.3,286046999.4,N
1506918135.1,286046996.5,N
1506918155.9,286046991.8,N
1506918175.7,286046983.0,Y
1506918195.5,286046979.1,P
1506918215.4,286046979.5,N
1506918235.2,286046979.3,N
1506918255.0,286046980.3,N
1506918255.9,286046980.3,N
1506918275.8,286046975.9,N
1506918295.6,286046978.7,N
1506918315.4,286046975.8,Y
1506918335.3,286046997.9,P
1506918355.1,286046995.0,N
1506918375.8,286046990.4,N
1506918395.7,286046993.1,N
1506918415.5,286046989.2,N
1506918435.3,286046990.4,N
1506918455.2,286046990.4,N
1506918475.9,286046988.5,N
1506918495.7,286046989.4,N
1506918515.5,286046990.4,N
1506918535.4,286046991.0,N
1506918555.2,286046989.4,N
1506918575.0,286046988.5,Y
1506918576.0,286046988.5,P
1506918595.8,286046998.7,N
1506918615.6,286046998.1,N
1506918635.4,286046997.8,N
1506918655.3,286046997.5,N
1506918675.1,286046996.8,N
1506918695.8,286046996.2,N
1506918715.7,286046997.3,N
1506918735.5,286046998.2,N
1506918755.3,286046998.3,N
1506918775.2,286046996.9,N
1506918795.9,286046997.1,N
1506918815.7,286046995.0,N
1506918835.6,286046996.3,N
1506918855.4,286046999.4,N
1506918875.2,286047002.6,N
1506918895.0,286046997.2,N
1506918896.0,286046997.2,N
1506918915.8,286046997.4,N
1506918935.6,286046999.5,N
1506918955.4,286046995.8,N
1506918975.3,286046995.0,N
1506918995.1,286046996.3,N
1506919015.8,286046995.0,N
1506919035.7,286046997.4,N
1506919055.5,286046996.2,N
1506919075.3,286046997.8,N
1506919095.2,286046993.5,N
1506919115.9,286046993.5,N
1506919135.7,286046996.1,N
1506919155.6,286046997.3,N
1506919175.4,286046999.3,N
1506919195.2,286046998.5,N
1506919215.0,286047002.7,N
1506919215.9,286047002.7,N
1506919235.8,286047004.1,N
1506919255.6,286047003.5,N
1506919275.4,286047003.7,N
1506919295.3,286047005.8,N
1506919315.1,286047003.8,N
1506919335.8,286046999.9,N
1506919355.7,286046997.7,N
1506919375.5,286046996.5,N
1506919395.3,286047006.7,N
1506919415.2,286047009.4,N
1506919435.9,286047010.5,N
1506919455.7,286047013.1,N
1506919475.6,286047015.2,N
1506919495.4,286047018.3,Y
1506919515.2,286047016.0,P
1506919535.1,286047014.6,N
1506919536.0,286047014.6,N
1506919555.8,286047013.1,N
1506919575.6,286047012.8,N
1506919595.5,286047014.8,N
1506919615.3,286047018.8,Y
1506919635.1,286047009.1,P
1506919655.9,286047012.4,P
1506919675.7,286047011.1,P
1506919695.5,286047014.8,Y
1506919715.4,286047002.5,P
1506919735.2,286047002.3,N
1506919755.0,286047000.2,N
1506919755.9,286047000.2,N
1506919775.8,286046998.7,N
1506919795.6,286047000.7,N
1506919815.4,286046997.2,N
1506919835.2,286047000.5,N
1506919855.1,286046999.7,N
1506919856.0,286046999.7,N
1506919875.8,286047002.0,N
1506919895.6,286047003.0,N
1506919915.5,286047002.0,N
1506919935.3,286047000.1,N
1506919955.1,286047001.8,N
1506919975.9,286046997.3,N
1506919995.7,286046997.1,N
1506920015.5,286046997.8,N
1506920035.4,286047000.5,N
1506920055.2,286047001.6,N
1506920075.0,286047004.3,N
1506920075.9,286047004.3,N
1506920095.8,286047005.7,N
1506920115.6,286047005.3,N
1506920135.4,286047005.9,N
1506920155.2,286047000.0,N
1506920175.1,286046996.5,N
1506920176.0,286046996.5,N
1506920195.8,286046995.1,N
1506920215.6,286046993.3,N
1506920235.5,286046998.0,N
1506920255.3,286046992.4,N
1506920275.1,286046989.4,Y
1506920295.9,286046983.6,P
1506920315.7,286046983.6,N
1506920335.5,286046984.7,N
1506920355.4,286046987.7,N
1506920375.2,286046986.1,N
1506920395.0,286046984.0,N
1506920395.9,286046984.0,N
